ONEWEB-0278, 48996

Orbit data source: Space-Track

ONEWEB-0278, 48996 is a payload satellite owned by One Web (NAA) (UK) in LEO that was launched on Thu, 01 Jul 2021 UTC via a SOYUZ-2-1B launch vehicle from the Vostochny Cosmodrome (VOSTO). Payload-class satellites include a variety of spacecraft equipped with specific instruments for various scientific and technological missions. These include communications satellites like Starlink; space stations such as the ISS; scientific satellites like the Hubble; Earth observation satellites from companies like Planet Labs, Umbra, and HawkEye 360; GPS; miniature CubeSats for education and research; and military/defense satellites.

Loading next visibility...
Identifier
48996, 2021-060AF
Orbit
LEO
Country
Flag of UKUK
Related business
Manufacturer
One Web
Mission
Operational Commercial Communications
Bus & Motor
ARROW, Unknown motor
Mass
148 kg wet, ~140 kg dry
Launch date (UTC)
2021-07-01 (4 years ago)
Launch vehicle
SOYUZ-2-1B
Launch site
Vostochny Cosmodrome (VOSTO)
Object type
Payload
Rocket body
Debris
Shape & HBR
Trap Box + 2 Pan, 6.7 m
Radar Cross Section
3.464 m², Large (>1 m²)

Expand to show TLE details & history
Last TLE update: 19 hours ago

TLE from 19 hours ago
0 ONEWEB-0278
1 48996U 21060AF  25348.82120659 -.00000053  00000-0 -17165-3 0  9993
2 48996  87.9046 265.4823 0001480  73.6526 286.4768 13.16593661215431
Epoch: 2025-12-14T19:42Z
TLE epoch observation values (Epoch: 2025-12-14T19:42:32.249Z)
Latitude
0.00002°
Longitude
-113.8807°
Altitude
1,200.338 km
Speed
7.254 km/s
True Right ascension
17h 41m 55s
True Declination
0° 00' 00"
Sunlit
Object was in daylight at epoch
Visualization orbit readout
Latitude
Unknown
Longitude
Unknown
Altitude
Unknown
Speed
Unknown
Apparent Right ascension
Unknown
Apparent Declination
Unknown
Sunlit
N/A
Visualization observer readout
Local Sidereal Time
13:25:42
Azimuth
Unknown
Elevation
Unknown
Doppler factor
Unknown
Orbital elements
Apogee altitude
1,195.99 km
Perigee altitude
1,193.749 km
Semi-major axis
7,573.006 km
Eccentricity
0.00015
Inclination
87.9046°
RAAN
265.4823°
Arg. of periapsis
73.6526°
True anomaly
286.46054°
Mean anomaly
286.4768°
Eccentric anomaly
286.46867°
Mean motion
3.29337 °/min
Orbital period
109.31 mins
BSTAR
-0.00017165
Loading maneuver chart data...
Computing Atmospheric mass density...
Loading historical data...
Loading historical data...
Loading historical data...
Loading historical data...
Loading historical data...
Loading historical data...
Loading historical data...

Documentation

Showing up to 5 results
|